Regional Weather Roundup
Issued by NWS Little Rock, AR

Home | Current Version | Previous Version | Graphics & Text | Print | Product List | Glossary On
Versions: 1 2 3 4 5 6 7 8 9 10 11 12 13 14 15 16 17 18 19 20 21 22 23 24 25 26 27 28 29 30 31 32
000
ASUS44 KLZK 161205
RWRLZK

WEATHER ROUNDUP FOR ARKANSAS
NATIONAL WEATHER SERVICE LITTLE ROCK AR
700 AM CDT MON OCT 16 2017

NOTE: "FAIR" INDICATES FEW OR NO CLOUDS BELOW 12,000 FEET WITH NO
SIGNIFICANT WEATHER AND/OR OBSTRUCTIONS TO VISIBILITY.

ARZ001-003-010-029-161300-
NORTHWEST ARKANSAS

CITY           SKY/WX    TMP DP  RH WIND       PRES   REMARKS
FAYETTEVILLE   CLEAR     37  37 100 CALM      30.41R FOG
6HR MIN TEMP:  36; 6HR MAX TEMP:  42;

FORT SMITH     CLEAR     46  43  89 CALM      30.40S
6HR MIN TEMP:  45; 6HR MAX TEMP:  53;

HARRISON       CLEAR     42  40  92 W3        30.40S
6HR MIN TEMP:  41; 6HR MAX TEMP:  47;

ROGERS         PTCLDY    41  38  89 CALM      30.41S
6HR MIN TEMP:  39; 6HR MAX TEMP:  46;

SILOAM SPGS    CLEAR     39  38  96 CALM      30.42R
6HR MIN TEMP:  39; 6HR MAX TEMP:  47;

HIGHFILL       CLEAR     41  38  89 N3        30.41R
6HR MIN TEMP:  40; 6HR MAX TEMP:  46;

$$

ARZ004-005-016-161300-
NORTH CENTRAL ARKANSAS

CITY           SKY/WX    TMP DP  RH WIND       PRES   REMARKS
BATESVILLE     CLEAR     46  42  86 N3        30.39R
6HR MIN TEMP:  46; 6HR MAX TEMP:  53;

FLIPPIN        CLEAR     41  40  96 CALM      30.40S
6HR MIN TEMP:  41; 6HR MAX TEMP:  51;

MTN HOME       CLEAR     42  41  96 CALM      30.38R
6HR MIN TEMP:  42; 6HR MAX TEMP:  48;

$$

ARZ040-041-161300-
WEST CENTRAL ARKANSAS

CITY           SKY/WX    TMP DP  RH WIND       PRES   REMARKS
MENA           CLEAR     52  43  71 CALM      30.39R
$$

ARZ009-017-025-026-028-161300-
NORTHEAST ARKANSAS

CITY           SKY/WX    TMP DP  RH WIND       PRES   REMARKS
JONESBORO      CLEAR     49  43  80 N5        30.37R
6HR MIN TEMP:  49; 6HR MAX TEMP:  54;

NEWPORT        CLEAR     42  41  96 N8        30.38R
6HR MIN TEMP:  42; 6HR MAX TEMP:  49;

WALNUT RIDGE   CLEAR     42  41  96 NW6       30.38R
6HR MIN TEMP:  42; 6HR MAX TEMP:  50;

BLYTHEVILLE    CLEAR     44  43  96 N6        30.36R
6HR MIN TEMP:  44; 6HR MAX TEMP:  49;

$$

ARZ022-023-033-042-044-161300-
CENTRAL ARKANSAS

CITY           SKY/WX    TMP DP  RH WIND       PRES   REMARKS
LITTLE ROCK    PTCLDY    48  43  82 N6        30.37R
6HR MIN TEMP:  48; 6HR MAX TEMP:  53;

N LITTLE ROCK    N/A     48  43  80 N6        30.38R
6HR MIN TEMP:  48; 6HR MAX TEMP:  54;

JACKSONVILLE   CLEAR     45  42  90 CALM      30.37R
6HR MIN TEMP:  45; 6HR MAX TEMP:  51;

SEARCY         CLEAR     47  44  90 CALM      30.38R
6HR MIN TEMP:  47; 6HR MAX TEMP:  53;

HOT SPRINGS    CLEAR     54  43  66 VRB5      30.37R
6HR MIN TEMP:  54; 6HR MAX TEMP:  59;

RUSSELLVILLE   CLEAR     43  43 100 W5        30.39R
6HR MIN TEMP:  42; 6HR MAX TEMP:  47;

CLINTON        FAIR      41  41 100 CALM      30.40R
$$

ARZ036-161300-
EAST ARKANSAS

CITY           SKY/WX    TMP DP  RH WIND       PRES   REMARKS
WEST MEMPHIS   CLEAR     48  46  93 N8        30.34R
6HR MIN TEMP:  48; 6HR MAX TEMP:  52;

$$

ARZ050-053-066-070-073-161300-
SOUTHWEST ARKANSAS

CITY           SKY/WX    TMP DP  RH WIND       PRES   REMARKS
ARKADELPHIA    FAIR      49  43  80 N3        30.37R
6HR MIN TEMP:  49; 6HR MAX TEMP:  55;

CAMDEN         CLEAR     46  43  87 N5        30.35R
TEXARKANA      CLEAR     48  43  82 N6        30.36R
6HR MIN TEMP:  47; 6HR MAX TEMP:  54;

EL DORADO      CLEAR     48  44  86 N7        30.34R
6HR MIN TEMP:  48; 6HR MAX TEMP:  54;

DE QUEEN       FOG       40  40 100 CALM      30.36R VSB 1
6HR MIN TEMP:  39; 6HR MAX TEMP:  47;

$$

ARZ056-057-069-161300-
SOUTHEAST ARKANSAS

CITY           SKY/WX    TMP DP  RH WIND       PRES   REMARKS
PINE BLUFF     CLEAR     50  44  80 N10       30.36R
6HR MIN TEMP:  50; 6HR MAX TEMP:  56;

STUTTGART      CLEAR     46  44  93 N9        30.36R
6HR MIN TEMP:  46; 6HR MAX TEMP:  51;

MONTICELLO     CLEAR     51  45  79 N5        30.33R
6HR MIN TEMP:  51; 6HR MAX TEMP:  57;


$$






USA.gov is the U.S. government's official web portal to all federal, state and local government web resources and services.